GW1370 Weather Reports


Display with metric or nautical units.
time (UTC)temp
F
wind
direction
speed
MPH
gust
MPH
rain 1hr
in
rain 24hr
in
rain mn
in
humidity
%
barometer
mb
20260506023100 48 329 0.0 6.0 0.00 0.00 0.00 83 1011.6
20260506021608 48 3 3.0 8.0 0.00 0.00 0.00 83 1011.6
20260506020052 49 314 1.0 7.0 0.00 0.00 0.00 83 1011.7
20260506014542 49 345 2.0 8.0 0.00 0.00 0.00 83 1011.7
20260506013055 49 335 3.0 8.0 0.00 0.00 0.00 83 1011.7
20260506011604 49 352 4.0 8.0 0.00 0.00 0.00 83 1011.8
20260506010043 49 346 2.0 11.0 0.00 0.00 0.00 82 1011.8
20260506004543 49 13 3.0 12.0 0.00 0.00 0.00 82 1011.9
20260506003041 49 4 4.0 12.0 0.00 0.00 0.00 82 1011.9
20260506001553 49 313 2.0 9.0 0.00 0.00 0.00 81 1012.0
20260506000048 50 353 1.0 9.0 0.00 0.00 0.00 80 1012.1
20260505234546 50 356 2.0 12.0 0.00 0.00 0.00 80 1012.0
20260505233044 50 350 3.0 10.0 0.00 0.00 0.00 79 1011.9
20260505231558 50 18 5.0 9.0 0.00 0.00 0.00 78 1011.9
20260505230041 51 359 3.0 13.0 0.00 0.00 0.00 78 1012.1
20260505224545 51 8 5.0 11.0 0.00 0.00 0.00 78 1012.0
20260505223048 51 333 5.0 12.0 0.00 0.00 0.00 78 1012.1
20260505221539 52 13 4.0 7.0 0.00 0.00 0.00 78 1012.0
20260505220045 51 34 4.0 8.0 0.00 0.00 0.00 78 1011.9
20260505214552 52 43 2.0 9.0 0.00 0.00 0.00 78 1011.9
20260505213041 52 21 2.0 7.0 0.00 0.00 0.00 77 1011.9
20260505211549 52 56 5.0 12.0 0.00 0.00 0.00 77 1011.9
20260505210045 52 42 5.0 12.0 0.00 0.00 0.00 77 1011.8
20260505204548 52 33 5.0 9.0 0.00 0.00 0.00 79 1012.0
20260505203104 52 57 5.0 12.0 0.00 0.00 0.00 78 1011.8
20260505201545 52 37 5.0 11.0 0.00 0.00 0.00 78 1011.8
20260505200047 52 50 6.0 13.0 0.00 0.00 0.00 78 1011.6
20260505194555 52 41 5.0 13.0 0.00 0.00 0.00 78 1011.5
20260505193044 52 52 7.0 11.0 0.00 0.00 0.00 78 1011.4
20260505191542 52 68 10.0 14.0 0.00 0.00 0.00 77 1011.3
20260505190040 53 78 10.0 14.0 0.00 0.00 0.00 76 1011.1
20260505184549 53 64 10.0 15.0 0.00 0.00 0.00 72 1011.1
20260505183046 54 56 9.0 16.0 0.00 0.00 0.00 68 1010.9
20260505181550 54 56 9.0 14.0 0.00 0.00 0.00 67 1010.9
20260505180051 54 60 8.0 13.0 0.00 0.00 0.00 65 1010.9
20260505174547 54 26 7.0 13.0 0.00 0.00 0.00 69 1010.9
20260505173055 55 32 8.0 12.0 0.00 0.00 0.00 69 1010.8
20260505171547 55 77 6.0 15.0 0.00 0.00 0.00 69 1011.0
20260505170104 55 68 7.0 9.0 0.00 0.00 0.00 68 1011.0
20260505164547 55 82 9.0 14.0 0.00 0.00 0.00 70 1011.0
20260505163051 55 84 9.0 16.0 0.00 0.00 0.00 67 1011.0
20260505161610 55 70 12.0 15.0 0.00 0.00 0.00 68 1011.0
20260505153056 55 69 9.0 14.0 0.00 0.00 0.00 70 1011.1
20260505151558 54 72 11.0 16.0 0.00 0.00 0.00 69 1011.2
20260505124549 56 46 13.0 19.0 0.00 0.00 0.00 57 1011.5
20260505123044 56 77 12.0 18.0 0.00 0.00 0.00 59 1011.6
20260505121548 57 58 13.0 20.0 0.00 0.00 0.00 56 1011.5
20260505120043 56 85 15.0 19.0 0.00 0.00 0.00 58 1011.6
20260505114548 57 82 14.0 20.0 0.00 0.00 0.00 60 1011.6
20260505113043 57 82 12.0 17.0 0.00 0.00 0.00 62 1011.6
20260505111546 57 59 11.0 19.0 0.00 0.00 0.00 59 1011.7
20260505101553 56 53 4.0 11.0 0.00 0.00 0.00 65 1012.2
20260505100045 55 69 6.0 12.0 0.00 0.00 0.00 69 1012.1
20260505094542 55 14 5.0 10.0 0.00 0.00 0.00 70 1012.3
20260505093047 54 44 5.0 11.0 0.00 0.00 0.00 70 1012.4
20260505091547 54 347 4.0 10.0 0.00 0.00 0.00 71 1012.4
20260505090055 54 43 3.0 9.0 0.00 0.00 0.00 75 1012.4
20260505084550 53 39 3.0 10.0 0.00 0.00 0.00 75 1012.4
20260505083045 52 33 6.0 9.0 0.00 0.00 0.00 75 1012.4
20260505081557 51 29 7.0 13.0 0.00 0.00 0.00 76 1012.5
20260505080046 51 1 7.0 14.0 0.00 0.00 0.00 78 1012.4
20260505074549 51 18 7.0 12.0 0.00 0.00 0.00 79 1012.4
20260505073113 51 34 8.0 13.0 0.00 0.00 0.00 79 1012.3
20260505071542 50 357 4.0 12.0 0.00 0.00 0.00 82 1012.4
20260505070048 50 51 7.0 11.0 0.00 0.00 0.00 82 1012.5
20260505064546 49 360 5.0 10.0 0.00 0.00 0.00 84 1012.6
20260505063048 49 25 2.0 11.0 0.00 0.00 0.00 87 1012.7
20260505061549 48 353 5.0 9.0 0.00 0.00 0.00 87 1012.8
20260505060049 48 12 1.0 9.0 0.00 0.00 0.00 88 1012.8
20260505054547 49 346 1.0 6.0 0.00 0.00 0.00 88 1012.8
20260505053059 49 11 0.0 4.0 0.00 0.00 0.00 89 1012.7
20260505051539 49 353 0.0 0.0 0.00 0.00 0.00 89 1012.7
20260505041546 49 0 0.0 1.0 0.00 0.00 0.00 87 1012.7
20260505040050 49 358 0.0 2.0 0.00 0.00 0.00 87 1012.7
20260505034543 50 0 0.0 4.0 0.00 0.00 0.00 86 1012.8
20260505033104 50 358 1.0 3.0 0.00 0.00 0.00 86 1012.9
20260505031542 50 1 2.0 5.0 0.00 0.00 0.00 86 1012.9
20260505030046 50 6 2.0 6.0 0.00 0.00 0.00 86 1013.1
20260505024546 50 10 3.0 7.0 0.00 0.00 0.00 86 1013.2